This is the latest recevied weather packets stored in our database for station/object IW2HNF-3. If no packets are shown the sender has not sent any weather packets the latest 10 day(s).
| Time | Temp. | Humidity | Pressure | Rain* | Wind** | Luminosity | Snow |
|---|---|---|---|---|---|---|---|
| 1777649462 | 20° C | 28% | 1024 hPa | 0 mm | - | - | - |
| 1777648839 | 19.44° C | 29% | 1024.1 hPa | 0 mm | - | - | - |
| 1777647639 | 20° C | 27% | 1024.3 hPa | 0 mm | - | - | - |
| 1777647063 | 20° C | 27% | 1024.4 hPa | 0 mm | - | - | - |
| 1777646439 | 19.44° C | 28% | 1024.5 hPa | 0 mm | - | - | - |
| 1777645863 | 19.44° C | 27% | 1024.5 hPa | 0 mm | - | - | - |
| 1777645238 | 19.44° C | 27% | 1024.6 hPa | 0 mm | - | - | - |
| 1777644662 | 20° C | 29% | 1024.7 hPa | 0 mm | - | - | - |
| 1777644470 | 19.44° C | 29% | 1024.8 hPa | 0 mm | - | - | - |
| 1777643462 | 19.44° C | 28% | 1025 hPa | 0 mm | - | - | - |
| 1777642838 | 19.44° C | 28% | 1025.1 hPa | 0 mm | - | - | - |
| 1777642262 | 19.44° C | 29% | 1025.2 hPa | 0 mm | - | - | - |
| 1777641638 | 19.44° C | 28% | 1025.4 hPa | 0 mm | - | - | - |
| 1777641062 | 18.33° C | 27% | 1025.4 hPa | 0 mm | - | - | - |
| 1777640438 | 17.78° C | 27% | 1025.5 hPa | 0 mm | - | - | - |
| 1777639863 | 18.33° C | 26% | 1025.6 hPa | 0 mm | - | - | - |
| 1777639238 | 18.33° C | 27% | 1025.7 hPa | 0 mm | - | - | - |
| 1777638662 | 18.33° C | 28% | 1025.8 hPa | 0 mm | - | - | - |
| 1777638039 | 17.78° C | 26% | 1025.9 hPa | 0 mm | - | - | - |
| 1777637463 | 17.78° C | 26% | 1025.9 hPa | 0 mm | - | - | - |
| 1777637271 | 17.78° C | 26% | 1026.1 hPa | 0 mm | - | - | - |
| 1777636263 | 17.78° C | 27% | 1026.1 hPa | 0 mm | - | - | - |
| 1777635064 | 17.22° C | 26% | 1026.3 hPa | 0 mm | - | - | - |
| 1777633863 | 17.78° C | 26% | 1026.6 hPa | 0 mm | - | - | - |
| 1777633239 | 17.22° C | 28% | 1026.6 hPa | 0 mm | - | - | - |
* Rain latest hour (hover to see other rain measurements)
** Current wind speed in m/s (hover to see current wind gust speed)